Weather History for Buckeye, AZ

Change the Weather History Date:

Friday, April 12, 2013

  Actual Average (KGYR) Record (KGYR)
Temperature  
Mean Temperature 67 °F -  
Max Temperature 86 °F 81 °F 89 °F (2002)
Min Temperature 48 °F 52 °F 50 °F (2009)
Cooling Degree Days 2    
Growing Degree Days 17 (Base 50)    
Moisture  
Dew Point 24 °F    
Average Humidity 19    
Maximum Humidity 38    
Minimum Humidity 9    
Precipitation  
Precipitation 0.00 in - - ()
Sea Level Pressure  
Sea Level Pressure 29.76 in    
Wind  
Wind Speed 5 mph (ESE)    
Max Wind Speed 10 mph    
Max Gust Speed -    
Visibility 10 miles    
Events      
Averages and records for this station are not official NWS values.
T = Trace of Precipitation, MM = Missing Value Source: NWS Daily Summary

Daily Weather History Graph

Daily Weather History Graph

Search for Another Location

Airport:

Trip Planner

Search our weather history database for the weather conditions in past years. The results will help you decide how hot, cold, wet, or windy it might be!

Date:

Astronomy

Apr. 12, 2013 Rise Set
Actual Time 6:03 AM MST 6:59 PM MST
Civil Twilight 5:38 AM MST 7:25 PM MST
Nautical Twilight 5:08 AM MST 7:55 PM MST
Astronomical Twilight 4:37 AM MST 8:26 PM MST
Moon 7:22 AM MST (4/12) 9:26 PM MST (4/12)
Length of Visible Light 13h 46m
Length of Day
12h 55m
Waxing Crescent, 6% of the Moon is Illuminated
Apr 12
Waxing Crescent
Apr 18
First Quarter
Apr 25
Full
May 2
Last Quarter
May 9
New

Hourly Weather History & Observations

Time (MST) Temp. Dew Point Humidity Pressure Visibility Wind Dir Wind Speed Gust Speed Precip Events Conditions
12:15 AM 62.6 °F 21.2 °F 20% 29.76 in 10.0 mi NNE 4.6 mph - N/A   Mostly Cloudy
12:35 AM 62.6 °F 21.2 °F 20% 29.76 in 10.0 mi NE 8.1 mph - N/A   Mostly Cloudy
12:55 AM 64.4 °F 19.4 °F 18% 29.76 in 10.0 mi NE 3.5 mph - N/A   Mostly Cloudy
1:15 AM 62.6 °F 19.4 °F 19% 29.76 in 10.0 mi NNE 4.6 mph - N/A   Mostly Cloudy
1:35 AM 59.0 °F 17.6 °F 20% 29.75 in 10.0 mi NNE 3.5 mph - N/A   Mostly Cloudy
1:55 AM 59.0 °F 23.0 °F 25% 29.75 in 10.0 mi NE 5.8 mph - N/A   Partly Cloudy
2:15 AM 57.2 °F 17.6 °F 21% 29.75 in 10.0 mi NE 3.5 mph - N/A   Clear
2:35 AM 57.2 °F 17.6 °F 21% 29.74 in 10.0 mi Calm Calm - N/A   Clear
2:55 AM 55.4 °F 23.0 °F 29% 29.75 in 10.0 mi NE 4.6 mph - N/A   Clear
3:15 AM 55.4 °F 19.4 °F 25% 29.74 in 10.0 mi North 3.5 mph - N/A   Clear
3:35 AM 55.4 °F 19.4 °F 25% 29.75 in 8.0 mi NNW 5.8 mph - N/A   Clear
3:55 AM 53.6 °F 19.4 °F 26% 29.75 in 10.0 mi NNW 6.9 mph - N/A   Clear
4:15 AM 55.4 °F 19.4 °F 25% 29.75 in 10.0 mi NNW 5.8 mph - N/A   Partly Cloudy
4:35 AM 53.6 °F 17.6 °F 24% 29.75 in 10.0 mi NNW 6.9 mph - N/A   Mostly Cloudy
4:55 AM 55.4 °F 17.6 °F 23% 29.75 in 10.0 mi NNW 4.6 mph - N/A   Overcast
5:15 AM 53.6 °F 17.6 °F 24% 29.75 in 10.0 mi North 3.5 mph - N/A   Mostly Cloudy
5:35 AM 53.6 °F 17.6 °F 24% 29.76 in 10.0 mi NNE 3.5 mph - N/A   Mostly Cloudy
5:55 AM 51.8 °F 26.6 °F 38% 29.76 in 10.0 mi Calm Calm - N/A   Partly Cloudy
6:15 AM 50.0 °F 17.6 °F 28% 29.77 in 10.0 mi Calm Calm - N/A   Clear
6:35 AM 48.2 °F 19.4 °F 32% 29.77 in 9.0 mi NW 3.5 mph - N/A   Clear
6:55 AM 53.6 °F 21.2 °F 28% 29.78 in 4.0 mi NW 3.5 mph - N/A   Clear
7:15 AM 57.2 °F 23.0 °F 27% 29.78 in 6.0 mi NNW 4.6 mph - N/A   Clear
7:35 AM 59.0 °F 23.0 °F 25% 29.78 in 10.0 mi NNW 3.5 mph - N/A   Clear
7:55 AM 64.4 °F 23.0 °F 21% 29.79 in 10.0 mi Calm Calm - N/A   Clear
8:15 AM 64.4 °F 24.8 °F 22% 29.80 in 10.0 mi Calm Calm - N/A   Clear
8:35 AM 66.2 °F 30.2 °F 26% 29.80 in 10.0 mi Calm Calm - N/A   Clear
8:55 AM 71.6 °F 32.0 °F 23% 29.80 in 10.0 mi ESE 8.1 mph - N/A   Clear
9:15 AM 73.4 °F 28.4 °F 19% 29.80 in 10.0 mi East 10.4 mph - N/A   Clear
9:35 AM 73.4 °F 30.2 °F 20% 29.80 in 10.0 mi East 9.2 mph - N/A   Clear
9:55 AM 75.2 °F 26.6 °F 17% 29.80 in 10.0 mi East 10.4 mph - N/A   Clear
10:15 AM 77.0 °F 30.2 °F 18% 29.80 in 10.0 mi East 10.4 mph - N/A   Clear
10:35 AM 77.0 °F 30.2 °F 18% 29.80 in 10.0 mi ESE 10.4 mph - N/A   Clear
10:55 AM 77.0 °F 28.4 °F 17% 29.81 in 10.0 mi ESE 10.4 mph - N/A   Clear
11:15 AM 80.6 °F 28.4 °F 15% 29.80 in 10.0 mi ESE 9.2 mph - N/A   Clear
11:35 AM 80.6 °F 26.6 °F 14% 29.80 in 10.0 mi SE 8.1 mph - N/A   Clear
11:55 AM 80.6 °F 28.4 °F 15% 29.79 in 10.0 mi SSE 10.4 mph - N/A   Clear
12:15 PM 80.6 °F 26.6 °F 14% 29.79 in 10.0 mi SE 5.8 mph - N/A   Clear
12:35 PM 82.4 °F 23.0 °F 11% 29.78 in 9.0 mi South 8.1 mph - N/A   Clear
12:55 PM 82.4 °F 26.6 °F 13% 29.78 in 10.0 mi ESE 4.6 mph - N/A   Clear
1:15 PM 82.4 °F 24.8 °F 12% 29.77 in 10.0 mi South 5.8 mph - N/A   Clear
1:35 PM 82.4 °F 23.0 °F 11% 29.77 in 10.0 mi WSW 4.6 mph - N/A   Clear
1:55 PM 84.2 °F 23.0 °F 11% 29.76 in 10.0 mi South 5.8 mph - N/A   Clear
2:15 PM 84.2 °F 26.6 °F 12% 29.76 in 10.0 mi South 8.1 mph - N/A   Clear
2:35 PM 84.2 °F 21.2 °F 10% 29.75 in 10.0 mi Calm Calm - N/A   Clear
2:55 PM 84.2 °F 21.2 °F 10% 29.74 in 10.0 mi SSE 6.9 mph - N/A   Clear
3:15 PM 84.2 °F 19.4 °F 9% 29.73 in 10.0 mi SSE 8.1 mph - N/A   Clear
3:35 PM 84.2 °F 23.0 °F 11% 29.73 in 10.0 mi SE 8.1 mph - N/A   Clear
3:55 PM 86.0 °F 24.8 °F 11% 29.72 in 10.0 mi SSE 10.4 mph - N/A   Clear
4:15 PM 86.0 °F 24.8 °F 11% 29.71 in 10.0 mi SSE 9.2 mph - N/A   Clear
4:35 PM 86.0 °F 23.0 °F 10% 29.71 in 10.0 mi SSE 8.1 mph - N/A   Clear
4:55 PM 84.2 °F 24.8 °F 11% 29.70 in 10.0 mi South 9.2 mph - N/A   Clear
5:15 PM 84.2 °F 26.6 °F 12% 29.70 in 10.0 mi South 10.4 mph - N/A   Clear
5:35 PM 84.2 °F 24.8 °F 11% 29.70 in 10.0 mi South 9.2 mph - N/A   Clear
5:55 PM 82.4 °F 28.4 °F 14% 29.70 in 10.0 mi SE 6.9 mph - N/A   Clear
6:15 PM 82.4 °F 35.6 °F 19% 29.70 in 9.0 mi SSE 6.9 mph - N/A   Clear
6:35 PM 80.6 °F 32.0 °F 17% 29.70 in 9.0 mi SSE 6.9 mph - N/A   Clear
6:55 PM 77.0 °F 32.0 °F 19% 29.70 in 6.0 mi SSE 6.9 mph - N/A   Clear
7:15 PM 75.2 °F 32.0 °F 21% 29.71 in 6.0 mi SSE 5.8 mph - N/A   Clear
7:35 PM 75.2 °F 32.0 °F 21% 29.72 in 5.0 mi South 5.8 mph - N/A   Clear
7:55 PM 73.4 °F 32.0 °F 22% 29.73 in 7.0 mi South 4.6 mph - N/A   Clear
8:15 PM 73.4 °F 30.2 °F 20% 29.74 in 8.0 mi South 3.5 mph - N/A   Clear
8:35 PM 75.2 °F 28.4 °F 18% 29.75 in 10.0 mi Calm Calm - N/A   Clear
8:55 PM 71.6 °F 26.6 °F 19% 29.76 in 10.0 mi SW 3.5 mph - N/A   Clear
9:15 PM 73.4 °F 23.0 °F 15% 29.76 in 10.0 mi South 3.5 mph - N/A   Clear
9:35 PM 73.4 °F 24.8 °F 16% 29.77 in 10.0 mi SW 4.6 mph - N/A   Clear
9:55 PM 68.0 °F 23.0 °F 18% 29.78 in 10.0 mi NW 3.5 mph - N/A   Clear
10:15 PM 68.0 °F 21.2 °F 17% 29.78 in 10.0 mi NW 3.5 mph - N/A   Clear
10:35 PM 66.2 °F 19.4 °F 17% 29.78 in 10.0 mi Calm Calm - N/A   Clear
10:55 PM 64.4 °F 19.4 °F 18% 29.78 in 10.0 mi North 4.6 mph - N/A   Clear
11:15 PM 64.4 °F 19.4 °F 18% 29.78 in 10.0 mi North 4.6 mph - N/A   Clear
11:35 PM 64.4 °F 19.4 °F 18% 29.78 in 10.0 mi NE 3.5 mph - N/A   Clear
11:55 PM 64.4 °F 23.0 °F 21% 29.78 in 10.0 mi NE 4.6 mph - N/A   Clear